Time,TemperatureF,DewpointF,PressureIn,WindDirection,WindDirectionDegrees,WindSpeedMPH,WindSpeedGustMPH,Humidity,HourlyPrecipIn,Conditions,Clouds,dailyrainin,SoftwareType,DateUTC
2013-03-26 00:00:00,46.7,43.3,29.95,SSE,163,0.0,0.0,88,0.00,,,0.00,Wunderground v.1.15,2013-03-26 07:00:00,
2013-03-26 00:05:00,46.7,43.3,29.95,SSE,163,0.0,0.0,88,0.00,,,0.00,Wunderground v.1.15,2013-03-26 07:05:00,
2013-03-26 00:15:00,46.6,43.5,29.95,SSE,163,0.0,0.0,89,0.00,,,0.00,Wunderground v.1.15,2013-03-26 07:15:00,
2013-03-26 00:20:00,46.6,43.5,29.95,SSE,163,0.0,0.0,89,0.00,,,0.00,Wunderground v.1.15,2013-03-26 07:20:00,
2013-03-26 00:25:00,46.5,43.4,29.95,SSE,163,0.0,0.0,89,0.00,,,0.00,Wunderground v.1.15,2013-03-26 07:25:00,
2013-03-26 00:30:00,46.6,43.5,29.95,SSE,163,0.0,0.0,89,0.00,,,0.00,Wunderground v.1.15,2013-03-26 07:30:00,
2013-03-26 00:35:00,46.5,43.4,29.95,SSE,163,0.0,0.0,89,0.00,,,0.00,Wunderground v.1.15,2013-03-26 07:35:00,
2013-03-26 00:40:00,46.5,43.4,29.94,SSE,163,0.0,0.0,89,0.00,,,0.00,Wunderground v.1.15,2013-03-26 07:40:00,
2013-03-26 00:50:00,46.4,43.3,29.95,SSE,163,0.0,0.0,89,0.00,,,0.00,Wunderground v.1.15,2013-03-26 07:50:00,
2013-03-26 00:55:00,46.3,43.5,29.95,SSE,163,0.0,0.0,90,0.00,,,0.00,Wunderground v.1.15,2013-03-26 07:55:00,
2013-03-26 01:05:00,46.3,43.5,29.95,SSE,163,0.0,0.0,90,0.00,,,0.00,Wunderground v.1.15,2013-03-26 08:05:00,
2013-03-26 01:10:00,46.2,43.4,29.94,SSE,163,0.0,0.0,90,0.00,,,0.00,Wunderground v.1.15,2013-03-26 08:10:00,
2013-03-26 01:15:00,46.2,43.4,29.94,SSE,163,0.0,0.0,90,0.00,,,0.00,Wunderground v.1.15,2013-03-26 08:15:00,
2013-03-26 01:20:00,46.2,43.4,29.94,SSE,163,0.0,0.0,90,0.00,,,0.00,Wunderground v.1.15,2013-03-26 08:20:00,
2013-03-26 01:25:00,46.1,43.3,29.95,SSE,163,0.0,0.0,90,0.00,,,0.00,Wunderground v.1.15,2013-03-26 08:25:00,
2013-03-26 01:30:00,46.0,43.2,29.95,SSE,163,0.0,0.0,90,0.00,,,0.00,Wunderground v.1.15,2013-03-26 08:30:00,
2013-03-26 01:35:00,45.9,43.1,29.95,SSE,163,0.0,0.0,90,0.00,,,0.00,Wunderground v.1.15,2013-03-26 08:35:00,
2013-03-26 01:40:00,45.8,43.0,29.95,SSE,163,0.0,0.0,90,0.00,,,0.00,Wunderground v.1.15,2013-03-26 08:40:00,
2013-03-26 01:45:00,45.7,42.9,29.95,SSE,163,0.0,0.0,90,0.00,,,0.00,Wunderground v.1.15,2013-03-26 08:45:00,
2013-03-26 01:50:00,45.6,42.8,29.95,SSE,163,0.0,0.0,90,0.00,,,0.00,Wunderground v.1.15,2013-03-26 08:50:00,
2013-03-26 01:55:00,45.5,42.7,29.95,SSE,163,0.0,0.0,90,0.00,,,0.00,Wunderground v.1.15,2013-03-26 08:55:00,
2013-03-26 02:05:00,45.3,42.5,29.95,SSE,163,0.0,0.0,90,0.00,,,0.00,Wunderground v.1.15,2013-03-26 09:05:00,
2013-03-26 02:10:00,45.2,42.4,29.95,SSE,163,0.0,0.0,90,0.00,,,0.00,Wunderground v.1.15,2013-03-26 09:10:00,
2013-03-26 02:15:00,45.0,42.2,29.95,SSE,163,0.0,0.0,90,0.00,,,0.00,Wunderground v.1.15,2013-03-26 09:15:00,
2013-03-26 02:20:00,44.9,42.1,29.95,SSE,163,0.0,0.0,90,0.00,,,0.00,Wunderground v.1.15,2013-03-26 09:20:00,
2013-03-26 02:25:00,44.9,42.1,29.95,SSE,163,0.0,0.0,90,0.00,,,0.00,Wunderground v.1.15,2013-03-26 09:25:00,
2013-03-26 02:30:00,44.8,42.0,29.95,SSE,163,0.0,0.0,90,0.00,,,0.00,Wunderground v.1.15,2013-03-26 09:30:00,
2013-03-26 02:35:00,44.7,41.9,29.95,SSE,163,0.0,0.0,90,0.00,,,0.00,Wunderground v.1.15,2013-03-26 09:35:00,
2013-03-26 02:45:00,44.6,42.1,29.95,SSE,163,0.0,0.0,91,0.00,,,0.00,Wunderground v.1.15,2013-03-26 09:45:00,
2013-03-26 02:50:00,44.6,42.1,29.95,SSE,163,0.0,0.0,91,0.00,,,0.00,Wunderground v.1.15,2013-03-26 09:50:00,
2013-03-26 02:55:00,44.5,42.0,29.95,SSE,163,0.0,0.0,91,0.00,,,0.00,Wunderground v.1.15,2013-03-26 09:55:00,
2013-03-26 03:00:00,44.5,42.0,29.95,SSE,163,0.0,0.0,91,0.00,,,0.00,Wunderground v.1.15,2013-03-26 10:00:00,
2013-03-26 03:10:00,44.5,42.0,29.94,SSE,163,0.0,0.0,91,0.00,,,0.00,Wunderground v.1.15,2013-03-26 10:10:00,
2013-03-26 03:15:00,44.3,41.8,29.94,SSE,163,0.0,0.0,91,0.00,,,0.00,Wunderground v.1.15,2013-03-26 10:15:00,
2013-03-26 03:20:00,44.2,41.7,29.94,SSE,163,0.0,0.0,91,0.00,,,0.00,Wunderground v.1.15,2013-03-26 10:20:00,
2013-03-26 03:25:00,44.2,41.7,29.94,SSE,163,0.0,0.0,91,0.00,,,0.00,Wunderground v.1.15,2013-03-26 10:25:00,
2013-03-26 03:35:00,44.0,41.5,29.94,SSE,163,0.0,0.0,91,0.00,,,0.00,Wunderground v.1.15,2013-03-26 10:35:00,
2013-03-26 03:45:00,43.7,41.0,29.94,SSE,163,0.0,0.0,90,0.00,,,0.00,Wunderground v.1.15,2013-03-26 10:45:00,
2013-03-26 03:50:00,43.5,41.0,29.94,SSE,163,0.0,0.0,91,0.00,,,0.00,Wunderground v.1.15,2013-03-26 10:50:00,
2013-03-26 03:55:00,43.4,40.9,29.94,SSE,163,0.0,0.0,91,0.00,,,0.00,Wunderground v.1.15,2013-03-26 10:55:00,
2013-03-26 04:00:00,43.3,40.8,29.94,SSE,163,0.0,0.0,91,0.00,,,0.00,Wunderground v.1.15,2013-03-26 11:00:00,
2013-03-26 04:05:00,43.1,40.7,29.94,SSE,163,0.0,0.0,91,0.00,,,0.00,Wunderground v.1.15,2013-03-26 11:05:00,
2013-03-26 04:10:00,43.0,40.6,29.94,SSE,163,0.0,0.0,91,0.00,,,0.00,Wunderground v.1.15,2013-03-26 11:10:00,
2013-03-26 04:15:00,42.8,40.4,29.94,SSE,163,0.0,0.0,91,0.00,,,0.00,Wunderground v.1.15,2013-03-26 11:15:00,
2013-03-26 04:20:00,42.8,40.4,29.94,SSE,163,0.0,0.0,91,0.00,,,0.00,Wunderground v.1.15,2013-03-26 11:20:00,
2013-03-26 04:30:00,42.6,40.2,29.94,SSE,163,0.0,0.0,91,0.00,,,0.00,Wunderground v.1.15,2013-03-26 11:30:00,
2013-03-26 04:35:00,42.5,40.1,29.94,SSE,163,0.0,0.0,91,0.00,,,0.00,Wunderground v.1.15,2013-03-26 11:35:00,
2013-03-26 04:40:00,42.5,40.3,29.94,SSE,163,0.0,0.0,92,0.00,,,0.00,Wunderground v.1.15,2013-03-26 11:40:00,
2013-03-26 04:50:00,42.5,40.3,29.94,SSE,163,0.0,0.0,92,0.00,,,0.00,Wunderground v.1.15,2013-03-26 11:50:00,
2013-03-26 04:55:00,42.5,40.3,29.94,SSE,163,0.0,0.0,92,0.00,,,0.00,Wunderground v.1.15,2013-03-26 11:55:00,
2013-03-26 05:00:00,42.4,40.2,29.94,SSE,163,0.0,0.0,92,0.00,,,0.00,Wunderground v.1.15,2013-03-26 12:00:00,
2013-03-26 05:10:00,42.3,40.1,29.94,SSE,163,0.0,0.0,92,0.00,,,0.00,Wunderground v.1.15,2013-03-26 12:10:00,
2013-03-26 05:15:00,42.2,40.0,29.93,SSE,163,0.0,0.0,92,0.00,,,0.00,Wunderground v.1.15,2013-03-26 12:15:00,
2013-03-26 05:25:00,42.2,40.0,29.94,SSE,163,0.0,0.0,92,0.00,,,0.00,Wunderground v.1.15,2013-03-26 12:25:00,
2013-03-26 05:30:00,42.1,39.9,29.94,SSE,163,0.0,0.0,92,0.00,,,0.00,Wunderground v.1.15,2013-03-26 12:30:00,
2013-03-26 05:35:00,42.0,39.8,29.94,SSE,163,0.0,0.0,92,0.00,,,0.00,Wunderground v.1.15,2013-03-26 12:35:00,
2013-03-26 05:40:00,42.0,39.8,29.94,SSE,163,0.0,0.0,92,0.00,,,0.00,Wunderground v.1.15,2013-03-26 12:40:00,
2013-03-26 05:45:00,42.0,39.8,29.94,SSE,163,0.0,0.0,92,0.00,,,0.00,Wunderground v.1.15,2013-03-26 12:45:00,
2013-03-26 05:50:00,41.9,39.7,29.94,SSE,163,0.0,0.0,92,0.00,,,0.00,Wunderground v.1.15,2013-03-26 12:50:00,
2013-03-26 05:55:00,41.8,39.6,29.94,SSE,163,0.0,0.0,92,0.00,,,0.00,Wunderground v.1.15,2013-03-26 12:55:00,
2013-03-26 06:00:00,41.8,39.6,29.93,SSE,163,0.0,0.0,92,0.00,,,0.00,Wunderground v.1.15,2013-03-26 13:00:00,
2013-03-26 06:10:00,41.6,39.4,29.93,SSE,163,0.0,0.0,92,0.00,,,0.00,Wunderground v.1.15,2013-03-26 13:10:00,
2013-03-26 06:15:00,41.5,39.3,29.93,SSE,163,0.0,0.0,92,0.00,,,0.00,Wunderground v.1.15,2013-03-26 13:15:00,
2013-03-26 06:20:00,41.5,39.3,29.94,SSE,163,0.0,0.0,92,0.00,,,0.00,Wunderground v.1.15,2013-03-26 13:20:00,
2013-03-26 06:25:00,41.4,39.3,29.94,SSE,163,0.0,0.0,92,0.00,,,0.00,Wunderground v.1.15,2013-03-26 13:25:00,
2013-03-26 06:30:00,41.3,39.2,29.94,SSE,163,0.0,0.0,92,0.00,,,0.00,Wunderground v.1.15,2013-03-26 13:30:00,
2013-03-26 06:35:00,41.2,39.1,29.94,SSE,163,0.0,0.0,92,0.00,,,0.00,Wunderground v.1.15,2013-03-26 13:35:00,
2013-03-26 06:40:00,41.0,38.9,29.95,SSE,163,0.0,0.0,92,0.00,,,0.00,Wunderground v.1.15,2013-03-26 13:40:00,
2013-03-26 06:45:00,41.0,38.9,29.95,SSE,163,0.0,0.0,92,0.00,,,0.00,Wunderground v.1.15,2013-03-26 13:45:00,
2013-03-26 06:55:00,40.9,39.0,29.95,SSE,163,0.0,0.0,93,0.00,,,0.00,Wunderground v.1.15,2013-03-26 13:55:00,
2013-03-26 07:00:00,41.0,39.1,29.95,SSE,163,0.0,0.0,93,0.00,,,0.00,Wunderground v.1.15,2013-03-26 14:00:00,
2013-03-26 07:05:00,41.0,40.5,29.95,SSE,163,0.0,0.0,98,0.00,,,0.00,Wunderground v.1.15,2013-03-26 14:05:00,
2013-03-26 07:10:00,40.9,39.0,29.95,SSE,163,0.0,0.0,93,0.00,,,0.00,Wunderground v.1.15,2013-03-26 14:10:00,
2013-03-26 07:15:00,41.0,39.1,29.95,SSE,163,0.0,0.0,93,0.00,,,0.00,Wunderground v.1.15,2013-03-26 14:15:00,
2013-03-26 07:20:00,41.1,39.2,29.96,SSE,163,0.0,0.0,93,0.00,,,0.00,Wunderground v.1.15,2013-03-26 14:20:00,
2013-03-26 07:25:00,41.2,39.3,29.96,SSE,163,0.0,0.0,93,0.00,,,0.00,Wunderground v.1.15,2013-03-26 14:25:00,
2013-03-26 07:30:00,41.3,39.4,29.96,SSE,163,0.0,0.0,93,0.00,,,0.00,Wunderground v.1.15,2013-03-26 14:30:00,
2013-03-26 07:40:00,41.8,40.2,29.96,SSE,163,0.0,0.0,94,0.00,,,0.00,Wunderground v.1.15,2013-03-26 14:40:00,
2013-03-26 07:45:00,42.0,40.4,29.96,SSE,163,0.0,0.0,94,0.00,,,0.00,Wunderground v.1.15,2013-03-26 14:45:00,
2013-03-26 07:50:00,42.2,40.6,29.96,SSE,163,0.0,0.0,94,0.00,,,0.00,Wunderground v.1.15,2013-03-26 14:50:00,
2013-03-26 07:55:00,42.5,40.9,29.96,SSE,163,0.0,0.0,94,0.00,,,0.00,Wunderground v.1.15,2013-03-26 14:55:00,
2013-03-26 08:00:00,43.0,41.4,29.96,SSE,163,0.0,0.0,94,0.00,,,0.00,Wunderground v.1.15,2013-03-26 15:00:00,
2013-03-26 08:05:00,43.6,42.3,29.96,SSE,163,0.0,0.0,95,0.00,,,0.00,Wunderground v.1.15,2013-03-26 15:05:00,
2013-03-26 08:15:00,45.1,43.8,29.96,SSE,163,0.0,0.0,95,0.00,,,0.00,Wunderground v.1.15,2013-03-26 15:15:00,
2013-03-26 08:20:00,45.9,44.5,29.97,SSE,163,0.0,0.0,95,0.00,,,0.00,Wunderground v.1.15,2013-03-26 15:20:00,
2013-03-26 08:25:00,46.8,45.7,29.97,SSE,163,0.0,0.0,96,0.00,,,0.00,Wunderground v.1.15,2013-03-26 15:25:00,
2013-03-26 08:30:00,47.8,46.7,29.97,SSE,163,0.0,0.0,96,0.00,,,0.00,Wunderground v.1.15,2013-03-26 15:30:00,
2013-03-26 08:40:00,49.6,48.5,29.97,SSE,163,0.0,0.0,96,0.00,,,0.00,Wunderground v.1.15,2013-03-26 15:40:00,
2013-03-26 08:50:00,50.8,49.7,29.97,SSE,163,0.0,0.0,96,0.00,,,0.00,Wunderground v.1.15,2013-03-26 15:50:00,
2013-03-26 08:55:00,51.4,50.3,29.97,SSE,163,0.0,0.0,96,0.00,,,0.00,Wunderground v.1.15,2013-03-26 15:55:00,
2013-03-26 09:00:00,52.1,50.7,29.97,SSE,163,0.0,0.0,95,0.00,,,0.00,Wunderground v.1.15,2013-03-26 16:00:00,
2013-03-26 09:05:00,52.9,50.9,29.97,SSE,163,0.0,0.0,93,0.00,,,0.00,Wunderground v.1.15,2013-03-26 16:05:00,
2013-03-26 09:10:00,53.7,50.5,29.97,SSE,163,0.0,0.0,89,0.00,,,0.00,Wunderground v.1.15,2013-03-26 16:10:00,
2013-03-26 09:15:00,54.5,50.4,29.98,SSE,163,0.0,1.0,86,0.00,,,0.00,Wunderground v.1.15,2013-03-26 16:15:00,
2013-03-26 09:20:00,55.2,50.4,29.97,SSE,163,0.0,0.0,84,0.00,,,0.00,Wunderground v.1.15,2013-03-26 16:20:00,
2013-03-26 09:25:00,56.0,50.6,29.98,SSE,164,0.0,0.0,82,0.00,,,0.00,Wunderground v.1.15,2013-03-26 16:25:00,
2013-03-26 09:30:00,56.8,50.4,29.98,South,174,1.0,2.0,79,0.00,,,0.00,Wunderground v.1.15,2013-03-26 16:30:00,
2013-03-26 09:35:00,57.4,50.2,29.98,South,174,1.0,2.0,77,0.00,,,0.00,Wunderground v.1.15,2013-03-26 16:35:00,
2013-03-26 09:40:00,58.0,49.8,29.97,South,174,0.0,0.0,74,0.00,,,0.00,Wunderground v.1.15,2013-03-26 16:40:00,
2013-03-26 09:50:00,59.0,50.4,29.97,South,174,1.0,1.0,73,0.00,,,0.00,Wunderground v.1.15,2013-03-26 16:50:00,
2013-03-26 10:00:00,60.0,50.9,29.98,South,174,1.0,2.0,72,0.00,,,0.00,Wunderground v.1.15,2013-03-26 17:00:00,
2013-03-26 10:10:00,60.3,50.9,29.98,South,175,1.0,2.0,71,0.00,,,0.00,Wunderground v.1.15,2013-03-26 17:10:00,
2013-03-26 10:15:00,60.8,52.1,29.98,SSE,168,1.0,3.0,73,0.00,,,0.00,Wunderground v.1.15,2013-03-26 17:15:00,
2013-03-26 10:20:00,61.2,51.3,29.98,South,191,2.0,5.0,70,0.00,,,0.00,Wunderground v.1.15,2013-03-26 17:20:00,
2013-03-26 10:25:00,61.6,51.7,29.97,SSE,166,3.0,5.0,70,0.00,,,0.00,Wunderground v.1.15,2013-03-26 17:25:00,
2013-03-26 10:30:00,62.2,52.3,29.97,SE,142,2.0,2.0,70,0.00,,,0.00,Wunderground v.1.15,2013-03-26 17:30:00,
2013-03-26 10:35:00,62.9,51.4,29.98,South,173,2.0,2.0,66,0.00,,,0.01,Wunderground v.1.15,2013-03-26 17:35:00,
2013-03-26 10:40:00,63.5,51.1,29.98,SSW,199,3.0,6.0,64,0.00,,,0.01,Wunderground v.1.15,2013-03-26 17:40:00,
2013-03-26 10:45:00,63.4,51.0,29.98,South,187,3.0,6.0,64,0.00,,,0.01,Wunderground v.1.15,2013-03-26 17:45:00,
2013-03-26 10:50:00,62.9,50.1,29.98,South,172,3.0,3.0,63,0.00,,,0.01,Wunderground v.1.15,2013-03-26 17:50:00,
2013-03-26 10:55:00,62.9,51.8,29.98,SSE,155,3.0,3.0,67,0.00,,,0.01,Wunderground v.1.15,2013-03-26 17:55:00,
2013-03-26 11:00:00,63.3,50.5,29.98,SSE,154,2.0,2.0,63,0.00,,,0.01,Wunderground v.1.15,2013-03-26 18:00:00,
2013-03-26 11:05:00,63.7,50.9,29.98,SSE,153,2.0,4.0,63,0.00,,,0.01,Wunderground v.1.15,2013-03-26 18:05:00,
2013-03-26 11:10:00,64.1,50.4,29.98,SE,142,2.0,2.0,61,0.00,,,0.01,Wunderground v.1.15,2013-03-26 18:10:00,
2013-03-26 11:15:00,64.9,50.7,29.98,SW,230,2.0,2.0,60,0.00,,,0.01,Wunderground v.1.15,2013-03-26 18:15:00,
2013-03-26 11:20:00,65.5,49.4,29.98,WSW,257,1.0,1.0,56,0.00,,,0.01,Wunderground v.1.15,2013-03-26 18:20:00,
2013-03-26 11:25:00,66.1,50.9,29.98,West,261,1.0,3.0,58,0.00,,,0.01,Wunderground v.1.15,2013-03-26 18:25:00,
2013-03-26 11:30:00,66.5,51.3,29.98,SSE,152,2.0,2.0,58,0.00,,,0.01,Wunderground v.1.15,2013-03-26 18:30:00,
2013-03-26 11:40:00,67.6,51.8,29.97,SSW,202,2.0,3.0,57,0.00,,,0.01,Wunderground v.1.15,2013-03-26 18:40:00,
2013-03-26 11:45:00,68.1,52.3,29.97,SSE,168,2.0,3.0,57,0.00,,,0.01,Wunderground v.1.15,2013-03-26 18:45:00,
2013-03-26 11:55:00,68.8,52.0,29.97,SE,143,1.0,2.0,55,0.00,,,0.01,Wunderground v.1.15,2013-03-26 18:55:00,
2013-03-26 12:00:00,68.5,52.7,29.97,SSW,205,1.0,1.0,57,0.00,,,0.01,Wunderground v.1.15,2013-03-26 19:00:00,
2013-03-26 12:05:00,68.6,52.3,29.97,West,259,2.0,5.0,56,0.00,,,0.01,Wunderground v.1.15,2013-03-26 19:05:00,
2013-03-26 12:15:00,68.9,52.6,29.97,West,280,2.0,3.0,56,0.00,,,0.01,Wunderground v.1.15,2013-03-26 19:15:00,
2013-03-26 12:20:00,69.2,52.3,29.97,North,351,2.0,2.0,55,0.00,,,0.01,Wunderground v.1.15,2013-03-26 19:20:00,
2013-03-26 12:25:00,69.6,54.2,29.97,SSW,201,2.0,2.0,58,0.00,,,0.01,Wunderground v.1.15,2013-03-26 19:25:00,
2013-03-26 12:30:00,70.1,53.7,29.96,West,261,2.0,2.0,56,0.00,,,0.01,Wunderground v.1.15,2013-03-26 19:30:00,
2013-03-26 12:35:00,70.2,54.2,29.96,WSW,252,2.0,4.0,57,0.00,,,0.01,Wunderground v.1.15,2013-03-26 19:35:00,
2013-03-26 12:45:00,69.1,53.2,29.96,South,187,4.0,5.0,57,0.00,,,0.01,Wunderground v.1.15,2013-03-26 19:45:00,
2013-03-26 12:50:00,68.4,53.5,29.96,SSE,151,3.0,3.0,59,0.00,,,0.01,Wunderground v.1.15,2013-03-26 19:50:00,
2013-03-26 12:55:00,68.1,52.8,29.96,WSW,239,3.0,3.0,58,0.00,,,0.01,Wunderground v.1.15,2013-03-26 19:55:00,
2013-03-26 13:00:00,68.1,52.8,29.95,West,272,3.0,5.0,58,0.00,,,0.01,Wunderground v.1.15,2013-03-26 20:00:00,
2013-03-26 13:05:00,68.2,53.3,29.95,SSW,205,3.0,5.0,59,0.00,,,0.01,Wunderground v.1.15,2013-03-26 20:05:00,
2013-03-26 13:10:00,68.9,53.5,29.95,SSW,211,2.0,2.0,58,0.00,,,0.01,Wunderground v.1.15,2013-03-26 20:10:00,
2013-03-26 13:20:00,69.5,53.6,29.95,SSE,157,2.0,4.0,57,0.00,,,0.01,Wunderground v.1.15,2013-03-26 20:20:00,
2013-03-26 13:30:00,70.4,53.5,29.96,WNW,295,2.0,2.0,55,0.00,,,0.01,Wunderground v.1.15,2013-03-26 20:30:00,
2013-03-26 13:35:00,70.3,52.9,29.95,WSW,256,2.0,2.0,54,0.00,,,0.01,Wunderground v.1.15,2013-03-26 20:35:00,
2013-03-26 13:40:00,69.6,52.2,29.95,SSW,195,3.0,5.0,54,0.00,,,0.01,Wunderground v.1.15,2013-03-26 20:40:00,
2013-03-26 13:45:00,68.8,52.0,29.95,SSW,208,2.0,5.0,55,0.00,,,0.01,Wunderground v.1.15,2013-03-26 20:45:00,
2013-03-26 13:55:00,69.5,53.1,29.95,WNW,288,2.0,3.0,56,0.00,,,0.01,Wunderground v.1.15,2013-03-26 20:55:00,
2013-03-26 14:00:00,70.4,53.0,29.95,South,187,1.0,3.0,54,0.00,,,0.01,Wunderground v.1.15,2013-03-26 21:00:00,
2013-03-26 14:05:00,70.5,53.6,29.95,NNW,347,2.0,4.0,55,0.00,,,0.01,Wunderground v.1.15,2013-03-26 21:05:00,
2013-03-26 14:10:00,70.6,53.1,29.95,WNW,297,2.0,2.0,54,0.00,,,0.01,Wunderground v.1.15,2013-03-26 21:10:00,
2013-03-26 14:15:00,70.3,51.8,29.95,West,259,3.0,3.0,52,0.00,,,0.01,Wunderground v.1.15,2013-03-26 21:15:00,
2013-03-26 14:20:00,69.9,52.0,29.95,West,269,3.0,3.0,53,0.00,,,0.01,Wunderground v.1.15,2013-03-26 21:20:00,
2013-03-26 14:25:00,69.5,52.6,29.94,SSE,164,2.0,3.0,55,0.00,,,0.01,Wunderground v.1.15,2013-03-26 21:25:00,
2013-03-26 14:30:00,69.7,52.3,29.94,South,174,2.0,5.0,54,0.00,,,0.01,Wunderground v.1.15,2013-03-26 21:30:00,
2013-03-26 14:40:00,69.9,54.0,29.94,WSW,239,2.0,2.0,57,0.00,,,0.01,Wunderground v.1.15,2013-03-26 21:40:00,
2013-03-26 14:45:00,70.4,53.5,29.94,NW,305,2.0,3.0,55,0.00,,,0.01,Wunderground v.1.15,2013-03-26 21:45:00,
2013-03-26 14:50:00,70.7,53.7,29.94,NW,321,2.0,2.0,55,0.00,,,0.01,Wunderground v.1.15,2013-03-26 21:50:00,
2013-03-26 14:55:00,70.6,53.1,29.94,NW,324,2.0,2.0,54,0.00,,,0.01,Wunderground v.1.15,2013-03-26 21:55:00,
2013-03-26 15:00:00,71.0,53.5,29.94,South,172,2.0,2.0,54,0.00,,,0.01,Wunderground v.1.15,2013-03-26 22:00:00,
2013-03-26 15:05:00,71.3,53.8,29.94,WSW,253,1.0,2.0,54,0.00,,,0.01,Wunderground v.1.15,2013-03-26 22:05:00,
2013-03-26 15:10:00,71.8,53.2,29.94,WSW,245,1.0,5.0,52,0.00,,,0.01,Wunderground v.1.15,2013-03-26 22:10:00,
2013-03-26 15:15:00,71.6,52.5,29.94,South,190,2.0,5.0,51,0.00,,,0.01,Wunderground v.1.15,2013-03-26 22:15:00,
2013-03-26 15:20:00,70.8,51.8,29.93,West,266,3.0,3.0,51,0.00,,,0.01,Wunderground v.1.15,2013-03-26 22:20:00,
2013-03-26 15:25:00,70.1,52.2,29.93,SSE,166,3.0,3.0,53,0.00,,,0.01,Wunderground v.1.15,2013-03-26 22:25:00,
2013-03-26 15:30:00,69.4,51.5,29.93,WSW,239,2.0,2.0,53,0.00,,,0.01,Wunderground v.1.15,2013-03-26 22:30:00,
2013-03-26 15:40:00,68.9,52.1,29.93,South,171,2.0,2.0,55,0.00,,,0.01,Wunderground v.1.15,2013-03-26 22:40:00,
2013-03-26 15:45:00,68.9,52.1,29.93,SW,216,2.0,6.0,55,0.00,,,0.01,Wunderground v.1.15,2013-03-26 22:45:00,
2013-03-26 15:50:00,68.4,52.1,29.93,South,186,2.0,4.0,56,0.00,,,0.01,Wunderground v.1.15,2013-03-26 22:50:00,
2013-03-26 15:55:00,68.2,51.9,29.93,NNW,328,2.0,4.0,56,0.00,,,0.01,Wunderground v.1.15,2013-03-26 22:55:00,
2013-03-26 16:00:00,68.7,52.8,29.93,WSW,240,1.0,3.0,57,0.00,,,0.01,Wunderground v.1.15,2013-03-26 23:00:00,
2013-03-26 16:10:00,68.9,53.0,29.93,East,99,2.0,2.0,57,0.00,,,0.01,Wunderground v.1.15,2013-03-26 23:10:00,
2013-03-26 16:20:00,68.9,52.1,29.93,ESE,106,2.0,2.0,55,0.00,,,0.01,Wunderground v.1.15,2013-03-26 23:20:00,
2013-03-26 16:25:00,68.8,52.5,29.93,SW,217,2.0,2.0,56,0.00,,,0.01,Wunderground v.1.15,2013-03-26 23:25:00,
2013-03-26 16:30:00,68.7,52.4,29.93,SW,236,1.0,1.0,56,0.00,,,0.01,Wunderground v.1.15,2013-03-26 23:30:00,
2013-03-26 16:35:00,68.8,52.5,29.93,SE,125,1.0,2.0,56,0.00,,,0.01,Wunderground v.1.15,2013-03-26 23:35:00,
2013-03-26 16:45:00,68.8,52.0,29.93,SE,143,1.0,1.0,55,0.00,,,0.01,Wunderground v.1.15,2013-03-26 23:45:00,
2013-03-26 16:50:00,69.2,52.3,29.92,SW,228,1.0,1.0,55,0.00,,,0.01,Wunderground v.1.15,2013-03-26 23:50:00,
2013-03-26 16:55:00,69.2,51.8,29.92,South,180,1.0,1.0,54,0.00,,,0.01,Wunderground v.1.15,2013-03-26 23:55:00,
2013-03-26 17:00:00,69.4,51.5,29.92,SSW,203,1.0,1.0,53,0.00,,,0.01,Wunderground v.1.15,2013-03-27 00:00:00,
2013-03-26 17:05:00,69.2,52.3,29.92,North,4,1.0,1.0,55,0.00,,,0.01,Wunderground v.1.15,2013-03-27 00:05:00,
2013-03-26 17:15:00,67.9,51.6,29.92,SSE,150,2.0,2.0,56,0.00,,,0.01,Wunderground v.1.15,2013-03-27 00:15:00,
2013-03-26 17:20:00,67.2,51.4,29.92,SSW,193,2.0,2.0,57,0.00,,,0.01,Wunderground v.1.15,2013-03-27 00:20:00,
2013-03-26 17:30:00,65.8,51.5,29.92,SW,217,2.0,2.0,60,0.00,,,0.01,Wunderground v.1.15,2013-03-27 00:30:00,
2013-03-26 17:35:00,65.2,51.8,29.92,SW,218,1.0,2.0,62,0.00,,,0.01,Wunderground v.1.15,2013-03-27 00:35:00,
2013-03-26 17:40:00,65.2,51.8,29.92,SSW,205,0.0,0.0,62,0.00,,,0.01,Wunderground v.1.15,2013-03-27 00:40:00,
2013-03-26 17:45:00,65.1,51.3,29.92,South,184,1.0,2.0,61,0.00,,,0.01,Wunderground v.1.15,2013-03-27 00:45:00,
2013-03-26 17:50:00,64.3,51.0,29.92,SW,234,2.0,2.0,62,0.00,,,0.01,Wunderground v.1.15,2013-03-27 00:50:00,
2013-03-26 17:55:00,63.6,51.2,29.92,SSE,163,2.0,3.0,64,0.00,,,0.01,Wunderground v.1.15,2013-03-27 00:55:00,
2013-03-26 18:00:00,63.1,50.7,29.92,WSW,245,1.0,1.0,64,0.00,,,0.01,Wunderground v.1.15,2013-03-27 01:00:00,
2013-03-26 18:05:00,62.7,50.3,29.92,SSE,157,1.0,1.0,64,0.00,,,0.01,Wunderground v.1.15,2013-03-27 01:05:00,
2013-03-26 18:10:00,62.3,50.0,29.92,SSW,201,1.0,1.0,64,0.00,,,0.01,Wunderground v.1.15,2013-03-27 01:10:00,
2013-03-26 18:15:00,61.8,49.5,29.92,SSW,208,1.0,2.0,64,0.00,,,0.01,Wunderground v.1.15,2013-03-27 01:15:00,
2013-03-26 18:25:00,60.9,49.5,29.92,SSW,207,0.0,3.0,66,0.00,,,0.01,Wunderground v.1.15,2013-03-27 01:25:00,
2013-03-26 18:35:00,60.0,49.0,29.93,SW,222,1.0,1.0,67,0.00,,,0.01,Wunderground v.1.15,2013-03-27 01:35:00,
2013-03-26 18:40:00,59.7,48.7,29.93,SW,222,1.0,1.0,67,0.00,,,0.01,Wunderground v.1.15,2013-03-27 01:40:00,
2013-03-26 18:45:00,59.3,48.3,29.93,SW,222,1.0,1.0,67,0.00,,,0.01,Wunderground v.1.15,2013-03-27 01:45:00,
2013-03-26 18:50:00,59.0,48.4,29.93,SW,222,0.0,0.0,68,0.00,,,0.01,Wunderground v.1.15,2013-03-27 01:50:00,
2013-03-26 18:55:00,58.8,48.3,29.93,SW,222,0.0,0.0,68,0.00,,,0.01,Wunderground v.1.15,2013-03-27 01:55:00,
2013-03-26 19:00:00,58.7,48.2,29.93,SW,222,0.0,0.0,68,0.00,,,0.01,Wunderground v.1.15,2013-03-27 02:00:00,
2013-03-26 19:05:00,58.5,48.0,29.93,SW,222,0.0,0.0,68,0.00,,,0.01,Wunderground v.1.15,2013-03-27 02:05:00,
2013-03-26 19:10:00,58.4,47.9,29.93,SW,222,0.0,0.0,68,0.00,,,0.01,Wunderground v.1.15,2013-03-27 02:10:00,
2013-03-26 19:15:00,58.3,48.2,29.93,SW,222,0.0,0.0,69,0.00,,,0.01,Wunderground v.1.15,2013-03-27 02:15:00,
2013-03-26 19:20:00,57.9,47.8,29.93,SW,222,0.0,1.0,69,0.00,,,0.01,Wunderground v.1.15,2013-03-27 02:20:00,
2013-03-26 19:25:00,57.7,48.0,29.93,SW,222,0.0,1.0,70,0.00,,,0.01,Wunderground v.1.15,2013-03-27 02:25:00,
2013-03-26 19:30:00,57.4,47.3,29.93,SW,222,0.0,0.0,69,0.00,,,0.01,Wunderground v.1.15,2013-03-27 02:30:00,
2013-03-26 19:35:00,57.2,47.5,29.94,SW,222,0.0,0.0,70,0.00,,,0.01,Wunderground v.1.15,2013-03-27 02:35:00,
2013-03-26 19:40:00,56.9,46.8,29.94,SW,222,0.0,0.0,69,0.00,,,0.01,Wunderground v.1.15,2013-03-27 02:40:00,
2013-03-26 19:50:00,56.5,46.8,29.94,SW,222,0.0,0.0,70,0.00,,,0.01,Wunderground v.1.15,2013-03-27 02:50:00,
2013-03-26 19:55:00,56.0,46.7,29.94,SW,222,0.0,0.0,71,0.00,,,0.01,Wunderground v.1.15,2013-03-27 02:55:00,
2013-03-26 20:05:00,55.1,47.0,29.94,SW,222,0.0,0.0,74,0.00,,,0.01,Wunderground v.1.15,2013-03-27 03:05:00,
2013-03-26 20:10:00,54.7,46.2,29.94,SW,222,0.0,0.0,73,0.00,,,0.01,Wunderground v.1.15,2013-03-27 03:10:00,
2013-03-26 20:15:00,54.4,46.3,29.94,SW,222,0.0,0.0,74,0.00,,,0.01,Wunderground v.1.15,2013-03-27 03:15:00,
2013-03-26 20:20:00,54.2,45.7,29.95,SW,222,0.0,0.0,73,0.00,,,0.01,Wunderground v.1.15,2013-03-27 03:20:00,
2013-03-26 20:25:00,54.0,45.5,29.95,SW,222,0.0,0.0,73,0.00,,,0.01,Wunderground v.1.15,2013-03-27 03:25:00,
2013-03-26 20:30:00,53.8,45.7,29.94,SW,222,0.0,0.0,74,0.00,,,0.01,Wunderground v.1.15,2013-03-27 03:30:00,
2013-03-26 20:35:00,53.7,45.6,29.94,SW,222,0.0,0.0,74,0.00,,,0.01,Wunderground v.1.15,2013-03-27 03:35:00,
2013-03-26 20:40:00,53.5,45.4,29.94,SW,222,0.0,0.0,74,0.00,,,0.01,Wunderground v.1.15,2013-03-27 03:40:00,
2013-03-26 20:45:00,53.3,45.2,29.95,SW,222,0.0,0.0,74,0.00,,,0.01,Wunderground v.1.15,2013-03-27 03:45:00,
2013-03-26 20:50:00,53.2,44.8,29.95,SW,222,0.0,0.0,73,0.00,,,0.01,Wunderground v.1.15,2013-03-27 03:50:00,
2013-03-26 20:55:00,53.0,44.9,29.95,SW,222,0.0,0.0,74,0.00,,,0.01,Wunderground v.1.15,2013-03-27 03:55:00,
2013-03-26 21:00:00,52.9,44.8,29.95,SW,222,0.0,0.0,74,0.00,,,0.01,Wunderground v.1.15,2013-03-27 04:00:00,
2013-03-26 21:05:00,52.7,44.6,29.95,SW,222,0.0,0.0,74,0.00,,,0.01,Wunderground v.1.15,2013-03-27 04:05:00,
2013-03-26 21:10:00,52.6,44.5,29.95,SW,222,0.0,0.0,74,0.00,,,0.01,Wunderground v.1.15,2013-03-27 04:10:00,
2013-03-26 21:20:00,52.2,44.2,29.96,SW,222,0.0,0.0,74,0.00,,,0.01,Wunderground v.1.15,2013-03-27 04:20:00,
2013-03-26 21:25:00,52.0,44.0,29.96,SW,222,0.0,0.0,74,0.00,,,0.01,Wunderground v.1.15,2013-03-27 04:25:00,
2013-03-26 21:30:00,51.8,43.8,29.96,SW,222,0.0,0.0,74,0.00,,,0.01,Wunderground v.1.15,2013-03-27 04:30:00,
2013-03-26 21:35:00,51.6,44.6,29.96,SW,222,0.0,0.0,77,0.00,,,0.01,Wunderground v.1.15,2013-03-27 04:35:00,
2013-03-26 21:40:00,51.4,44.4,29.96,SW,222,0.0,0.0,77,0.00,,,0.01,Wunderground v.1.15,2013-03-27 04:40:00,
2013-03-26 21:45:00,51.1,44.1,29.96,SW,222,0.0,0.0,77,0.00,,,0.01,Wunderground v.1.15,2013-03-27 04:45:00,
2013-03-26 21:50:00,50.9,44.3,29.97,SW,222,0.0,0.0,78,0.00,,,0.01,Wunderground v.1.15,2013-03-27 04:50:00,
2013-03-26 21:55:00,50.6,44.7,29.97,SW,222,0.0,0.0,80,0.00,,,0.01,Wunderground v.1.15,2013-03-27 04:55:00,
2013-03-26 22:00:00,50.4,44.5,29.97,SW,222,0.0,0.0,80,0.00,,,0.01,Wunderground v.1.15,2013-03-27 05:00:00,
2013-03-26 22:05:00,50.1,44.2,29.97,SW,222,0.0,0.0,80,0.00,,,0.01,Wunderground v.1.15,2013-03-27 05:05:00,
2013-03-26 22:10:00,49.9,44.0,29.97,SW,222,0.0,0.0,80,0.00,,,0.01,Wunderground v.1.15,2013-03-27 05:10:00,
2013-03-26 22:20:00,49.6,44.3,29.97,SW,222,0.0,0.0,82,0.00,,,0.01,Wunderground v.1.15,2013-03-27 05:20:00,
2013-03-26 22:30:00,49.2,44.3,29.98,SW,222,0.0,0.0,83,0.00,,,0.01,Wunderground v.1.15,2013-03-27 05:30:00,
2013-03-26 22:35:00,49.0,44.1,29.98,SW,222,0.0,0.0,83,0.00,,,0.01,Wunderground v.1.15,2013-03-27 05:35:00,
2013-03-26 22:40:00,48.8,44.2,29.97,SW,222,0.0,0.0,84,0.00,,,0.01,Wunderground v.1.15,2013-03-27 05:40:00,
2013-03-26 22:45:00,48.6,44.0,29.97,SW,222,0.0,0.0,84,0.00,,,0.01,Wunderground v.1.15,2013-03-27 05:45:00,
2013-03-26 22:50:00,48.5,43.9,29.97,SW,222,0.0,0.0,84,0.00,,,0.01,Wunderground v.1.15,2013-03-27 05:50:00,
2013-03-26 22:55:00,48.3,44.0,29.97,SW,222,0.0,0.0,85,0.00,,,0.01,Wunderground v.1.15,2013-03-27 05:55:00,
2013-03-26 23:00:00,48.2,43.9,29.97,SW,222,0.0,0.0,85,0.00,,,0.01,Wunderground v.1.15,2013-03-27 06:00:00,
2013-03-26 23:05:00,48.1,43.8,29.97,SW,222,0.0,0.0,85,0.00,,,0.01,Wunderground v.1.15,2013-03-27 06:05:00,
2013-03-26 23:10:00,48.0,44.0,29.97,SW,222,0.0,0.0,86,0.00,,,0.01,Wunderground v.1.15,2013-03-27 06:10:00,
2013-03-26 23:15:00,47.9,44.2,29.97,SW,222,0.0,0.0,87,0.00,,,0.01,Wunderground v.1.15,2013-03-27 06:15:00,
2013-03-26 23:25:00,47.8,44.1,29.97,SW,222,0.0,0.0,87,0.00,,,0.01,Wunderground v.1.15,2013-03-27 06:25:00,
2013-03-26 23:30:00,47.6,43.9,29.98,SW,222,0.0,0.0,87,0.00,,,0.01,Wunderground v.1.15,2013-03-27 06:30:00,
2013-03-26 23:35:00,47.5,43.8,29.97,SW,222,0.0,0.0,87,0.00,,,0.01,Wunderground v.1.15,2013-03-27 06:35:00,
2013-03-26 23:40:00,47.4,43.7,29.97,SW,222,0.0,0.0,87,0.00,,,0.01,Wunderground v.1.15,2013-03-27 06:40:00,
2013-03-26 23:45:00,47.4,43.7,29.97,SW,222,0.0,0.0,87,0.00,,,0.01,Wunderground v.1.15,2013-03-27 06:45:00,
2013-03-26 23:50:00,47.3,43.6,29.97,SW,222,0.0,0.0,87,0.00,,,0.01,Wunderground v.1.15,2013-03-27 06:50:00,
2013-03-26 23:55:00,47.4,44.0,29.97,SW,222,0.0,0.0,88,0.00,,,0.01,Wunderground v.1.15,2013-03-27 06:55:00,